CUTE
1 49263U 21088D   25331.23162532  .00045037  00000-0  61397-3 0  9999
2 49263  97.4360  53.4003 0004854 338.8439  21.2614 15.57383112230882
TeikyoSat 4
1 49396U 21102B   25331.08106666  .00002498  00000-0  16375-3 0  9992
2 49396  97.3919   3.2682 0010485 268.5652  91.4376 15.08536871222240
Z-Sat
1 49399U 21102E   25331.26921418  .00005509  00000-0  28755-3 0  9996
2 49399  97.3603   7.6786 0016062 227.8760 132.1109 15.16214401222823
KOSEN 1
1 49402U 21102H   25331.07032845  .00009945  00000-0  42158-3 0  9998
2 49402  97.3494  12.2890 0014334 194.9184 165.1632 15.23234753223219
HO-113
1 50466U 21131B   25331.30570347  .00000689  00000-0  22769-3 0  9994
2 50466  98.5063  59.8049 0003837   0.2520 359.8670 14.41079920206035
SNUGLITE 2
1 52899U 22065F   25330.94361196  .00001552  00000-0  30680-3 0  9993
2 52899  98.1918 111.5671 0006516 303.4113  56.6465 14.63767355181409
UmKA 1 (RS40S)
1 57172U 23091G   25331.25154957  .00007374  00000-0  36641-3 0  9993
2 57172  97.5360  25.7849 0015075 102.0950 258.1974 15.17857253133348
CubeBel-2 (EU11S)
1 57175U 23091K   25331.28838650  .00011886  00000-0  50071-3 0  9994
2 57175  97.5360  28.1738 0012489 104.9283 255.3338 15.23430718133502
SONATE-2
1 59112U 24043Q   25331.16815182  .00029073  00000-0  63977-3 0  9993
2 59112  97.5324 106.8533 0008856 218.6176 141.4439 15.43892616 96572
MO-122
1 60209U 24125G   25331.05552632  .00035594  00000-0  75440-3 0  9992
2 60209  97.2541 181.4304 0013435 240.3141 119.6771 15.44905472 78186
GRBBeta
1 60237U 24128C   25331.06760963  .00005325  00000-0  37977-3 0  9997
2 60237  61.9890 204.3722 0056813  93.5116 267.2476 15.04532558 75836
Curium One
1 60242U 24128H   25331.22018023  .00008136  00000-0  51374-3 0  9994
2 60242  61.9779 199.0755 0056599  90.5091 270.2489 15.08482716 75948
ROBUSTA-3A
1 60243U 24128J   25331.08441653  .00009057  00000-0  57958-3 0  9995
2 60243  61.9861 201.0187 0056615  87.9708 272.7868 15.07884901 75903
CatSat
1 60246U 24125J   25331.01230105  .00039975  00000-0  10139-2 0  9997
2 60246  97.2339 178.5813 0033746 202.0839 157.8955 15.38985283 76109
HYPERVIEW-1G (RS66S)
1 61772U 24199AP  25331.28295043  .00042188  00000-0  85750-3 0  9996
2 61772  97.3224 200.5422 0009100 307.5741  52.4682 15.46152409103226
AO-123
1 61781U 24199AY  25331.25494965  .00011583  00000-0  38232-3 0  9995
2 61781  97.3261 196.8782 0013745 317.6742  42.3438 15.31478810102975
ZIMSAT 2
1 61783U 24199BA  25331.30228332  .00150198  00000-0  14295-2 0  9994
2 61783  97.3120 203.5785 0004216 307.2812  52.8063 15.66340983106584
HADES-R (SO-124)
1 62690U 25009CK  25331.20260397  .00136827  00000-0  21463-2 0  9997
2 62690  97.3902  53.2939 0002546 226.8080 133.2961 15.53197758 48366
HYDRA-T
1 62692U 25009CM  25331.19615803  .00149787  00000-0  22404-2 0  9998
2 62692  97.3899  53.4534 0002336 230.0262 130.0787 15.54468405 48375
JINJUSat 1B
1 63210U 25052A   25331.11678253  .00019325  00000-0  75368-3 0  9995
2 63210  97.4198 223.3777 0006094  80.8350 279.3577 15.25961330 39205
NUSHSAT 1
1 63211U 25052B   25331.18777117  .00022112  00000-0  83767-3 0  9992
2 63211  97.4184 223.5499 0006065  83.7286 276.4643 15.26900005 39229
TEVEL2-4
1 63213U 25052D   25331.18208936  .00020575  00000-0  79448-3 0  9994
2 63213  97.4104 223.1277 0005111  93.5868 266.5955 15.26284344 39215
TEVEL2-5
1 63214U 25052E   25331.18682885  .00020426  00000-0  79035-3 0  9991
2 63214  97.4101 223.1221 0005097  94.2687 265.9134 15.26217709 39215
TEVEL2-6
1 63215U 25052F   25331.19365365  .00017534  00000-0  68012-3 0  9993
2 63215  97.4104 223.1174 0005194  94.3131 265.8701 15.26167750 39218
TEVEL2-1
1 63217U 25052H   25331.23309372  .00016530  00000-0  64742-3 0  9997
2 63217  97.4078 222.9806 0005177 102.6668 257.5150 15.25858440 39216
TEVEL2-3
1 63218U 25052J   25331.23250346  .00016590  00000-0  64935-3 0  9994
2 63218  97.4082 222.9850 0005154 103.6853 256.4959 15.25877412 39218
TEVEL2-2
1 63219U 25052K   25331.16829550  .00019524  00000-0  76383-3 0  9996
2 63219  97.4080 222.9166 0005126 103.9818 256.1991 15.25858902 39205
TEVEL2-9
1 63237U 25052AD  25331.18190030  .00019058  00000-0  77833-3 0  9995
2 63237  97.4143 222.6583 0008457 124.4663 235.7375 15.24403793 39179
TEVEL2-7
1 63238U 25052AE  25331.19433902  .00016325  00000-0  67016-3 0  9991
2 63238  97.4143 222.6478 0008610 124.2505 235.9549 15.24261567 39173
TEVEL2-8
1 63239U 25052AF  25330.67451381  .00018675  00000-0  76695-3 0  9998
2 63239  97.4145 222.1186 0008555 126.1442 234.0589 15.24219667 39095
HYDRA-W
1 63490U 25052BL  25331.17140984  .00071934  00000-0  18710-2 0  9997
2 63490  97.4067 224.7633 0010911 110.3278 249.9141 15.38595069 39326
HADES-ICM (SO-125)
1 63492U 25052BN  25331.21320667  .00052683  00000-0  14491-2 0  9994
2 63492  97.4077 224.5769 0010835 114.7645 245.4728 15.36954763 39317
Dragonfly
1 65729U 98067XH  25331.06971836  .00129788  00000-0  12054-2 0  9992
2 65729  51.6259 215.6515 0006359 187.6965 172.3934 15.66488237 10706
RSP-03
1 65732U 98067XL  25331.04366249  .00107685  00000-0  10944-2 0  9998
2 65732  51.6278 216.2303 0006920 163.8014 196.3204 15.64316778 10702
GHS-01
1 65733U 98067XM  25331.23438309  .00142053  00000-0  12281-2 0  9991
2 65733  51.6287 214.5061 0006864 186.1050 173.9864 15.68205857 10746
BOTAN
1 65942U 98067XP  25331.09668132  .00092920  00000-0  11543-2 0  9993
2 65942  51.6292 218.0868 0004673 142.2724 217.8598 15.59209389  7422
CEVROSAT1
1 98526U 25248E   25313.13142326  .00000000  00000-0  19360-3 0    02
2 98526  45.4084 218.4764 0001315 254.8982 242.1062 15.17981583    02
